Regional Weather Roundup
Issued by NWS

Home | Current Version | Previous Version | Text Only | Print | Product List | Glossary Off
Versions: 1 2 3 4 5 6 7 8 9 10 11 12 13 14 15 16 17 18 19 20 21 22 23 24 25 26 27 28 29 30 31 32 33 34 35 36 37 38 39 40 41 42 43 44 45 46 47 48 49 50

000
ASUS43 KMKX 230300
RWRWI

WISCONSIN REGIONAL WEATHER ROUNDUP
NATIONAL WEATHER SERVICE MILWAUKEE/SULLIVAN WI
1000 PM CDT TUE APR 22 2014

NOTE: "FAIR" INDICATES FEW OR NO CLOUDS BELOW 12,000 FEET WITH NO
SIGNIFICANT WEATHER AND/OR OBSTRUCTIONS TO VISIBILITY.

WIZ001-002-006>008-014>016-023>028-230400-
NORTHWEST WISCONSIN

CITY           SKY/WX    TMP DP  RH WIND       PRES   REMARKS
SUPERIOR ARPT  CLEAR     37  24  60 E3        30.08R
ASHLAND        CLEAR     31  27  85 N5        30.10R WCI  26
HAYWARD        CLEAR     32  21  64 CALM      30.09R
SIREN          CLEAR     38  25  58 CALM      30.09R
RICE LAKE      CLEAR     38  28  66 CALM      30.11R
LADYSMITH      CLEAR     42  26  52 E3        30.10R
EAU CLAIRE     CLEAR     36  23  59 CALM      30.09R
MENOMONIE      CLEAR     47  25  43 N3        30.09R
NEW RICHMOND   CLEAR     42  29  59 CALM      30.09R
OSCEOLA        CLEAR     42  27  55 CALM      30.12R
$$

WIZ003>005-009-010-017-018-230400-
NORTH CENTRAL WISCONSIN

CITY           SKY/WX    TMP DP  RH WIND       PRES   REMARKS
WOODRUFF       CLEAR     32  22  66 CALM      30.08R
RHINELANDER    CLEAR     32  23  69 CALM      30.09R
EAGLE RIVER    CLEAR     30  24  78 CALM      30.07R
LAND O LAKES   CLEAR     29  26  88 CALM      30.09R
PHILLIPS       CLEAR     34  25  69 CALM      30.08R
TOMAHAWK       CLEAR     31  24  77 CALM      30.08R
MEDFORD        CLEAR     37  26  63 NE3       30.08S
MERRILL        CLEAR     34  27  75 CALM      30.09R
$$

WIZ029-030-035-036-043>047-230400-
CENTRAL WISCONSIN

CITY           SKY/WX    TMP DP  RH WIND       PRES   REMARKS
WAUSAU         CLEAR     40  25  55 CALM      30.07R
MOSINEE        CLEAR     39  25  56 N5        30.10R
MARSHFIELD     CLEAR     41  25  53 NE6       30.09R
STEVENS POINT  CLEAR     36  25  64 CALM      30.09R
WAUPACA        CLEAR     43  27  52 N3        30.09R
WAUTOMA        NOT AVBL
WISC RAPIDS    CLEAR     42  26  53 NE6       30.10R
CAMP DOUGLAS   NOT AVBL
$$

WIZ011>013-019>022-031-037>040-048>050-230400-
NORTHEAST WISCONSIN

CITY           SKY/WX    TMP DP  RH WIND       PRES   REMARKS
ANTIGO         CLEAR     33  27  77 CALM      30.08R
STURGEON BAY   CLEAR     34  27  75 N8        30.09R WCI  27
GREEN BAY      CLEAR     37  28  70 N7        30.09R WCI  32
MANITOWOC      NOT AVBL
APPLETON       PTCLDY    37  28  70 N7        30.08R WCI  32
CLINTONVILLE   CLEAR     41  27  56 N5        30.08R
OSHKOSH        CLEAR     43  28  55 NE10      30.08R
$$

WIZ032>034-041-042-053>061-230400-
SOUTHWEST WISCONSIN

CITY           SKY/WX    TMP DP  RH WIND       PRES   REMARKS
LA CROSSE      CLEAR     46  29  51 NW5       30.08R
SPARTA         CLEAR     45  24  42 NE3       30.09R
VIROQUA        FAIR      43  26  50 N6        30.07R
BOSCOBEL       CLEAR     46  26  45 E5        30.08R
PRAIRIE DU CHI CLEAR     49  27  42 NE5       30.06R
PLATTEVILLE    FAIR      42  28  55 NE6       30.06R
$$

WIZ056-057-062-063-064-067-068-230400-
SOUTH CENTRAL WISCONSIN

CITY           SKY/WX    TMP DP  RH WIND       PRES   REMARKS
BARABOO/DELLS  CLEAR     44  25  47 CALM      30.07R
LONE ROCK      NOT AVBL
WATERTOWN      CLEAR     42  28  58 NE3       30.06R
MADISON        CLEAR     45  27  49 NE3       30.07R
MIDDLETON      FAIR      43  28  55 N5        30.07R
MONROE         CLEAR     45  24  43 N7        30.04R
JANESVILLE     CLEAR     46  28  49 NE10      30.05R
$$

WIZ051-052-058>065-066-070>072-230400-
SOUTHEAST WISCONSIN

CITY           SKY/WX    TMP DP  RH WIND       PRES   REMARKS
MILWAUKEE      PTCLDY    40  29  64 N9        30.07R WCI  34
WAUKESHA       CLEAR     36  30  80 CALM      30.07R
MILWAUKEE/TIMM CLEAR     39  28  65 CALM      30.07
RACINE         CLEAR     40  29  64 NE8       30.08R WCI  34
BURLINGTON     CLEAR     37  28  72 CALM      30.07R
KENOSHA        CLEAR     35  28  75 CALM      30.07R
FOND DU LAC    CLEAR     42  29  59 NE13      30.08R
SHEBOYGAN      CLEAR     38  28  67 N5        30.07R WCI  34
WEST BEND      CLEAR     41  27  56 N5        30.06R
JUNEAU         CLEAR     43  26  51 N3        30.07R
$$

LSZ147-162-230400-
LAKE SUPERIOR

STATION/POSITION TIME  TEMP    WIND        PRES    WAVE
                       AIR SEA DIR/SP/G            HT/PER
                 (UTC) (F)     (DEG/KT/KT) (MB)    (FT/S)
DEVILS ISLAND    0200   38     130/  9/  9 1019.9R
PORT WING        0200   36     140/  2/  2 1018.6R
SAXON HARBOR     0200             CALM     1019.0
$$

LMZ867-665-643>646-230400-
LAKE MICHIGAN

STATION/POSITION TIME  TEMP    WIND        PRES    WAVE
                       AIR SEA DIR/SP/G            HT/PER
                 (UTC) (F)     (DEG/KT/KT) (MB)    (FT/S)
NORTHPORT PIER   0200   33     340/ 12/ 17 1017.9R
SISTER BAY       0209   36      20/ 13/ 16   N/A
KEWAUNEE LAKESHO 0200   40     350/  5/  9 1018.6R
SHEBOYGAN LAKESH 0200   42      20/ 13/ 14 1018.5R
PORT WASHINGTON  0240   42      30/  3/  6 1019.0R
MILWAUKEE LAKESH 0200   41      20/ 13/ 16   N/A
KENOSHA   LAKESH 0200   41      40/  5/  7   N/A
$$

TC  - TEMPERATURE IN CELSIUS
VSB - VISIBILITY IN STATUTE MILES
WCI - WIND CHILL INDEX
HX  - HEAT INDEX




USA.gov is the U.S. government's official web portal to all federal, state and local government web resources and services.